Content
SEND FEEDBACK

Daily
Averages
Monthly
Summary
United States of America

ACHANG BAY, GUAM


Home > North America > United States > Guam
Elevation: 10 meters     Latitude: 13 16N     Longitude: 144 45E

WEATHER
 
SELECT A DAY
Number of Records: 356,513;   Date Range: 1/1/95 - 12/18/14
 
SHARE

PRINT THIS DATA

[ ← Previous Day ]
WEATHER ALMANAC - 12 MARCH, 2013
[ Next Day → ]
[ °F ]   °C
Weather ElementAverageHighLow
Temperature24.2 °C26 °C (8:35 am)23 °C (1:25 am)
Dewpoint23.3 °C24.1 °C (12:55 pm)22 °C (1:25 am)
Humidity94.7 %100 % (9:16 am)83 % (2:00 pm)
Barometer1009.8 hPa1011.5 hPa (9:29 am)1008.1 hPa (3:25 pm)
Wind Speed25.1 km/h37 km/h (11:47 am)
Wind Gust46.3 km/h (12:26 pm)
Weather ElementAverage
Visibility11.7 km
Wind DirectionNE (49.1 °)

Weather ElementTotal
Precipitation---
Cooling Degree Days6.2 (Base 18.3)
Growing Degree Days14.5 (Base 10)
Averaged from 260 records on 12 March, 2013
WEATHER CONDITIONS BREAKOUT
WIND DIRECTION BREAKOUT
WEATHER BY HOUR - 12 MARCH, 2013
[ °F ]   °C
Local TimeTemperatureDewpointHumidityBarometerVisibilityWind DirectionWind SpeedGust SpeedPrecipitationEventsConditions
12:13 AM24 °C23 °C94 %1010.5 hPa16.1 kmENE (70°)14.8 km/hMostly Cloudy
12:22 AM24 °C23 °C94 %1010.5 hPa16.1 kmENE (60°)16.7 km/hMostly Cloudy
12:33 AM24 °C23 °C94 %1010.2 hPa16.1 kmENE (60°)14.8 km/hMostly Cloudy
12:35 AM24 °C23 °C94 %1010.2 hPa16.1 kmENE (60°)14.8 km/hMostly Cloudy
12:45 AM24 °C23 °C94 %1010.2 hPa16.1 kmENE (60°)24.1 km/hMostly Cloudy
12:55 AM24.6 °C23.2 °C92 %1010.2 hPa16.1 kmNE (50°)22.2 km/h0 mmMostly Cloudy
12:59 AM24 °C23 °C94 %1010.2 hPa9.7 kmENE (60°)27.8 km/h37 km/hRainRain
1:06 AM24 °C23 °C94 %1010.2 hPa6.4 kmNE (50°)20.4 km/h37 km/hRainLight Rain
1:10 AM24 °C23 °C94 %1010.2 hPa9.7 kmNE (40°)18.5 km/hLight Drizzle
1:12 AM24 °C23 °C94 %1010.2 hPa11.3 kmNE (40°)24.1 km/hLight Drizzle
1:16 AM24 °C23 °C94 %1010.2 hPa9.7 kmNE (50°)20.4 km/hRainRain
1:17 AM24 °C23 °C94 %1010.2 hPa9.7 kmENE (60°)20.4 km/hRainRain
1:19 AM24 °C23 °C94 %1010.2 hPa8 kmENE (60°)24.1 km/hRainLight Rain
1:25 AM23 °C22 °C94 %1010.2 hPa8 kmENE (60°)24.1 km/hLight Drizzle
1:37 AM24 °C23 °C94 %1009.8 hPa16.1 kmNE (50°)24.1 km/hMostly Cloudy
1:47 AM24 °C23 °C94 %1009.5 hPa16.1 kmNE (50°)20.4 km/hMostly Cloudy
1:55 AM24.1 °C23.3 °C95 %1009.5 hPa16.1 kmNE (40°)22.2 km/h0 mmMostly Cloudy
2:05 AM24 °C23 °C94 %1009.5 hPa16.1 kmNE (40°)25.9 km/hMostly Cloudy
2:10 AM24 °C23 °C94 %1009.5 hPa16.1 kmENE (70°)20.4 km/hLight Drizzle
2:19 AM23 °C22 °C94 %1009.5 hPa6.4 kmENE (70°)24.1 km/h35.2 km/hRainLight Rain
2:28 AM23 °C22 °C94 %1009.5 hPa16.1 kmNE (50°)16.7 km/hOvercast
2:31 AM23 °C22 °C94 %1009.1 hPa16.1 kmNE (50°)22.2 km/hMostly Cloudy
2:43 AM24 °C23 °C94 %1009.1 hPa16.1 kmNE (50°)20.4 km/hMostly Cloudy
2:55 AM24 °C23.2 °C95 %1009.1 hPa16.1 kmNE (50°)18.5 km/h0 mmMostly Cloudy
2:59 AM24 °C23 °C94 %1008.8 hPa16.1 kmNE (50°)18.5 km/hMostly Cloudy
3:06 AM24 °C23 °C94 %1008.8 hPa16.1 kmNE (50°)22.2 km/h35.2 km/hMostly Cloudy
3:16 AM24 °C23 °C94 %1008.8 hPa16.1 kmENE (70°)31.5 km/h42.6 km/hMostly Cloudy
3:18 AM24 °C23 °C94 %1008.8 hPa16.1 kmENE (70°)29.6 km/hMostly Cloudy
3:19 AM24 °C23 °C94 %1008.8 hPa16.1 kmENE (70°)29.6 km/hMostly Cloudy
3:33 AM24 °C23 °C94 %1008.8 hPa16.1 kmENE (70°)18.5 km/hOvercast
3:37 AM24 °C22 °C89 %1008.8 hPa16.1 kmENE (70°)20.4 km/hOvercast
3:38 AM24 °C22 °C89 %1008.8 hPa16.1 kmENE (70°)20.4 km/hOvercast
3:40 AM24 °C22 °C89 %1008.8 hPa16.1 kmEast (80°)20.4 km/hOvercast
3:55 AM23.9 °C22.6 °C92 %1008.8 hPa16.1 kmENE (60°)18.5 km/hMostly Cloudy
4:29 AM24 °C23 °C94 %1009.1 hPa16.1 kmNE (50°)20.4 km/hMostly Cloudy
4:41 AM24 °C23 °C94 %1009.1 hPa16.1 kmNE (40°)22.2 km/hMostly Cloudy
4:44 AM24 °C23 °C94 %1009.1 hPa14.5 kmENE (60°)24.1 km/hLight Drizzle
4:46 AM24 °C23 °C94 %1009.1 hPa12.9 kmENE (60°)22.2 km/hLight Drizzle
4:47 AM24 °C23 °C94 %1009.1 hPa12.9 kmENE (60°)24.1 km/hLight Drizzle
4:49 AM24 °C23 °C94 %1009.1 hPa12.9 kmENE (60°)22.2 km/hLight Drizzle
4:54 AM24 °C23 °C94 %1009.1 hPa12.9 kmENE (60°)25.9 km/hLight Drizzle
4:56 AM24 °C23 °C94 %1009.1 hPa16.1 kmNE (50°)22.2 km/hOvercast
4:58 AM24 °C23 °C94 %1009.1 hPa16.1 kmNE (50°)22.2 km/hOvercast
5:00 AM24 °C23 °C94 %1009.1 hPa16.1 kmNE (50°)24.1 km/hOvercast
5:04 AM24 °C23 °C94 %1009.1 hPa16.1 kmNE (50°)24.1 km/hOvercast
5:14 AM24 °C23 °C94 %1009.1 hPa16.1 kmNE (50°)22.2 km/hOvercast
5:15 AM24 °C23 °C94 %1009.1 hPa16.1 kmNE (50°)24.1 km/hOvercast
5:26 AM24 °C23 °C94 %1009.1 hPa16.1 kmENE (60°)20.4 km/hOvercast
5:27 AM24 °C23 °C94 %1009.1 hPa16.1 kmENE (60°)18.5 km/hOvercast
5:33 AM24 °C23 °C94 %1009.1 hPa16.1 kmENE (70°)16.7 km/hMostly Cloudy
5:35 AM24 °C23 °C94 %1009.1 hPa16.1 kmENE (60°)18.5 km/hMostly Cloudy
5:36 AM24 °C23 °C94 %1009.1 hPa16.1 kmENE (70°)18.5 km/hMostly Cloudy
5:40 AM24 °C23 °C94 %1009.1 hPa16.1 kmENE (70°)22.2 km/hMostly Cloudy
5:42 AM24 °C23 °C94 %1009.1 hPa16.1 kmENE (60°)18.5 km/hMostly Cloudy
5:50 AM24 °C23 °C94 %1009.1 hPa16.1 kmENE (60°)18.5 km/hScattered Clouds
5:55 AM24.1 °C22.6 °C91 %1009.5 hPa16.1 kmENE (60°)22.2 km/hScattered Clouds
6:07 AM24 °C22 °C89 %1009.5 hPa16.1 kmENE (60°)22.2 km/hMostly Cloudy
6:08 AM24 °C22 °C89 %1009.5 hPa16.1 kmENE (60°)20.4 km/hScattered Clouds
6:11 AM24 °C23 °C94 %1009.5 hPa16.1 kmENE (70°)29.6 km/h37 km/hMostly Cloudy
6:13 AM24 °C23 °C94 %1009.5 hPa12.9 kmEast (80°)27.8 km/h37 km/hRainLight Rain
6:23 AM24 °C23 °C94 %1009.5 hPa14.5 kmENE (70°)22.2 km/hMostly Cloudy
6:25 AM24 °C23 °C94 %1009.5 hPa16.1 kmENE (60°)22.2 km/hMostly Cloudy
6:28 AM24 °C23 °C94 %1009.8 hPa16.1 kmNE (50°)27.8 km/hOvercast
6:33 AM24 °C23 °C94 %1009.8 hPa16.1 kmENE (60°)24.1 km/hLight Drizzle
6:44 AM24 °C23 °C94 %1009.8 hPa16.1 kmEast (80°)18.5 km/hMostly Cloudy
6:49 AM24 °C23 °C94 %1009.8 hPa16.1 kmEast (80°)18.5 km/hMostly Cloudy
6:51 AM24 °C23 °C94 %1009.8 hPa16.1 kmEast (80°)22.2 km/hScattered Clouds
6:55 AM24.2 °C22.8 °C92 %1009.8 hPa16.1 kmEast (80°)18.5 km/h0 mmScattered Clouds
7:55 AM25.5 °C23.1 °C86 %1010.5 hPa16.1 kmENE (60°)20.4 km/hMostly Cloudy
8:05 AM25 °C23 °C89 %1010.5 hPa16.1 kmENE (70°)22.2 km/hMostly Cloudy
8:35 AM26 °C24 °C89 %1011.2 hPa16.1 kmNNE (30°)22.2 km/hMostly Cloudy
8:37 AM26 °C24 °C89 %1011.2 hPa16.1 kmNNE (30°)24.1 km/hMostly Cloudy
8:38 AM26 °C24 °C89 %1011.2 hPa16.1 kmNNE (30°)24.1 km/hMostly Cloudy
8:47 AM25 °C24 °C94 %1011.2 hPa16.1 kmNE (40°)22.2 km/hOvercast
8:55 AM25.3 °C24 °C92 %1011.2 hPa16.1 kmNE (40°)22.2 km/hMostly Cloudy
9:07 AM25 °C24 °C94 %1011.2 hPa6.4 kmNE (40°)27.8 km/h38.9 km/hRainHeavy Rain
9:09 AM25 °C24 °C94 %1011.2 hPa4 kmNNE (20°)24.1 km/h38.9 km/hRainHeavy Rain
9:13 AM25 °C24 °C94 %1011.2 hPa3.2 kmNE (40°)33.3 km/hRainHeavy Rain
9:16 AM24 °C24 °C100 %1011.2 hPa4 kmNE (40°)31.5 km/h38.9 km/hRainHeavy Rain
9:17 AM24 °C24 °C100 %1011.2 hPa4 kmNE (40°)29.6 km/h38.9 km/hRainHeavy Rain
9:18 AM24 °C24 °C100 %1011.2 hPa4.8 kmNE (40°)27.8 km/h38.9 km/hRainHeavy Rain
9:19 AM24 °C24 °C100 %1011.2 hPa4.8 kmNE (50°)25.9 km/h38.9 km/hRainHeavy Rain
9:29 AM25 °C24 °C94 %1011.5 hPa12.9 kmNE (50°)27.8 km/hRainLight Rain
9:30 AM25 °C24 °C94 %1011.5 hPa12.9 kmNE (50°)25.9 km/hOvercast
9:33 AM25 °C24 °C94 %1011.5 hPa14.5 kmNE (40°)27.8 km/hLight Drizzle
9:34 AM25 °C24 °C94 %1011.5 hPa14.5 kmNE (40°)27.8 km/hOvercast
9:42 AM24 °C24 °C100 %1011.5 hPa16.1 kmNE (40°)22.2 km/hOvercast
9:46 AM24 °C24 °C100 %1011.5 hPa14.5 kmNE (50°)18.5 km/hDrizzle
9:53 AM24 °C24 °C100 %1011.5 hPa11.3 kmNE (50°)20.4 km/hOvercast
9:55 AM24.6 °C24 °C96 %1011.5 hPa12.9 kmNE (50°)20.4 km/h0 mmOvercast
10:01 AM25 °C24 °C94 %1011.5 hPa16.1 kmNE (40°)25.9 km/hOvercast
10:02 AM25 °C24 °C94 %1011.5 hPa16.1 kmNE (40°)24.1 km/hMostly Cloudy
10:08 AM25 °C24 °C94 %1011.5 hPa14.5 kmNE (40°)25.9 km/hOvercast
10:10 AM25 °C24 °C94 %1011.2 hPa14.5 kmNNE (30°)22.2 km/hOvercast
10:11 AM25 °C24 °C94 %1011.2 hPa14.5 kmNE (40°)20.4 km/hLight Drizzle
10:12 AM25 °C24 °C94 %1011.2 hPa14.5 kmNNE (30°)22.2 km/hLight Drizzle
10:15 AM25 °C24 °C94 %1011.2 hPa12.9 kmNNE (30°)25.9 km/h33.3 km/hLight Drizzle
10:17 AM25 °C24 °C94 %1011.5 hPa12.9 kmNE (40°)29.6 km/hLight Drizzle
10:22 AM24 °C24 °C100 %1011.5 hPa11.3 kmNNE (30°)27.8 km/hRainLight Rain
10:33 AM24 °C24 °C100 %1011.2 hPa14.5 kmNE (40°)25.9 km/hRainLight Rain
10:41 AM24 °C23 °C94 %1011.2 hPa4 kmNE (50°)25.9 km/hRainLight Rain
10:44 AM24 °C24 °C100 %1011.2 hPa3.2 kmNE (50°)31.5 km/hRainLight Rain
10:45 AM24 °C24 °C100 %1011.2 hPa4 kmNE (40°)31.5 km/hRainLight Rain
10:51 AM24 °C24 °C100 %1011.2 hPa4.8 kmNE (50°)31.5 km/hRainLight Rain
10:55 AM24 °C23.4 °C96 %1011.2 hPa4.8 kmNE (50°)33.3 km/h0 mmRainRain
11:32 AM24 °C24 °C100 %1010.8 hPa4.8 kmNE (50°)22.2 km/hRainLight Rain
11:37 AM24 °C24 °C100 %1010.8 hPa11.3 kmNE (50°)29.6 km/h37 km/hRainLight Rain
11:38 AM25 °C24 °C94 %1010.8 hPa11.3 kmNE (50°)27.8 km/h37 km/hOvercast
11:40 AM25 °C24 °C94 %1010.8 hPa8 kmNE (50°)27.8 km/h37 km/hRainLight Rain
11:47 AM24 °C23 °C94 %1010.8 hPa4.8 kmNE (40°)37 km/hLight Drizzle
11:50 AM24 °C23 °C94 %1010.8 hPa4.8 kmNE (40°)35.2 km/h40.7 km/hRainRain
11:51 AM24 °C23 °C94 %1010.8 hPa4.8 kmNE (40°)33.3 km/h40.7 km/hRainLight Rain
11:55 AM24.1 °C23.4 °C96 %1010.5 hPa4.8 kmNE (50°)29.6 km/h40.7 km/h0 mmRainLight Rain
11:57 AM24 °C23 °C94 %1010.5 hPa4.8 kmNE (40°)25.9 km/hRainLight Rain
12:02 PM24 °C24 °C100 %1010.5 hPa8 kmNNE (30°)24.1 km/hLight Drizzle
12:08 PM24 °C24 °C100 %1010.5 hPa16.1 kmNE (40°)27.8 km/hLight Drizzle
12:10 PM24 °C24 °C100 %1010.5 hPa16.1 kmNE (40°)27.8 km/hOvercast
12:17 PM25 °C24 °C94 %1010.5 hPa16.1 kmNE (40°)25.9 km/hOvercast
12:21 PM25 °C24 °C94 %1010.5 hPa16.1 kmNE (50°)31.5 km/hOvercast
12:23 PM25 °C24 °C94 %1010.5 hPa12.9 kmNE (40°)33.3 km/hRainLight Rain
12:26 PM24 °C23 °C94 %1010.2 hPa8 kmNE (40°)37 km/h46.3 km/hRainHeavy Rain
12:42 PM24 °C24 °C100 %1010.2 hPa11.3 kmNNE (30°)27.8 km/hOvercast
12:55 PM24.8 °C24.1 °C96 %1009.8 hPa16.1 kmNE (40°)33.3 km/h0 mmOvercast
1:08 PM25 °C24 °C94 %1009.5 hPa16.1 kmNNE (30°)27.8 km/hMostly Cloudy
1:23 PM26 °C24 °C89 %1009.5 hPa16.1 kmNE (50°)31.5 km/hMostly Cloudy
1:28 PM26 °C24 °C89 %1009.5 hPa16.1 kmNE (50°)35.2 km/hMostly Cloudy
1:29 PM26 °C24 °C89 %1009.5 hPa16.1 kmNE (50°)35.2 km/hMostly Cloudy
1:55 PM25.7 °C23.2 °C86 %1009.1 hPa16.1 kmNNE (30°)25.9 km/hOvercast
2:00 PM26 °C23 °C83 %1009.1 hPa16.1 kmNE (40°)27.8 km/hMostly Cloudy
2:02 PM25 °C23 °C89 %1009.1 hPa16.1 kmNE (40°)29.6 km/hOvercast
2:04 PM25 °C23 °C89 %1008.8 hPa16.1 kmNE (40°)25.9 km/hOvercast
2:06 PM25 °C24 °C94 %1008.8 hPa14.5 kmNNE (30°)24.1 km/hLight Drizzle
2:10 PM25 °C24 °C94 %1008.8 hPa14.5 kmNE (40°)22.2 km/hLight Drizzle
2:12 PM25 °C24 °C94 %1008.8 hPa14.5 kmNE (40°)22.2 km/hLight Drizzle
2:13 PM25 °C24 °C94 %1008.8 hPa14.5 kmNE (40°)22.2 km/hLight Drizzle
2:17 PM25 °C24 °C94 %1008.8 hPa16.1 kmNE (40°)24.1 km/hOvercast
2:21 PM25 °C24 °C94 %1008.8 hPa16.1 kmNE (40°)22.2 km/hOvercast
2:22 PM25 °C24 °C94 %1008.8 hPa12.9 kmNE (40°)25.9 km/h35.2 km/hRainLight Rain
2:31 PM25 °C24 °C94 %1008.8 hPa4 kmENE (60°)31.5 km/h44.4 km/hRainLight Rain
2:32 PM25 °C24 °C94 %1008.8 hPa4 kmENE (70°)27.8 km/h44.4 km/hRainLight Rain
2:33 PM25 °C24 °C94 %1008.8 hPa3.2 kmENE (70°)25.9 km/h44.4 km/hRainLight Rain
2:44 PM24 °C23 °C94 %1008.8 hPa4 kmENE (70°)27.8 km/hLight Drizzle
2:48 PM24 °C23 °C94 %1008.5 hPa4 kmENE (70°)24.1 km/hLight Drizzle
2:49 PM24 °C23 °C94 %1008.5 hPa4.8 kmEast (80°)24.1 km/hLight Drizzle
2:53 PM24 °C23 °C94 %1008.5 hPa8 kmENE (70°)20.4 km/hOvercast
2:55 PM24.4 °C23.6 °C95 %1008.5 hPa9.7 kmENE (70°)20.4 km/h0 mmLight Drizzle
3:04 PM24 °C24 °C100 %1008.5 hPa8 kmNE (40°)24.1 km/h31.5 km/hLight Drizzle
3:05 PM24 °C24 °C100 %1008.5 hPa8 kmNE (40°)22.2 km/h31.5 km/hLight Drizzle
3:06 PM24 °C23 °C94 %1008.5 hPa6.4 kmNE (50°)18.5 km/hRainRain
3:07 PM24 °C23 °C94 %1008.5 hPa6.4 kmNE (50°)20.4 km/hRainRain
3:09 PM24 °C23 °C94 %1008.5 hPa4.8 kmNE (50°)25.9 km/hRainRain
3:11 PM24 °C23 °C94 %1008.5 hPa4.8 kmNE (40°)31.5 km/hRainLight Rain
3:12 PM24 °C24 °C100 %1008.5 hPa4.8 kmNE (50°)29.6 km/hRainLight Rain
3:13 PM24 °C24 °C100 %1008.5 hPa4 kmNE (50°)29.6 km/hRainLight Rain
3:16 PM24 °C24 °C100 %1008.5 hPa4.8 kmNE (40°)27.8 km/hRainRain
3:22 PM24 °C24 °C100 %1008.5 hPa4.8 kmNE (40°)25.9 km/hRainLight Rain
3:24 PM24 °C24 °C100 %1008.5 hPa6.4 kmNE (40°)25.9 km/hRainHeavy Rain
3:25 PM24 °C24 °C100 %1008.1 hPa6.4 kmNE (40°)25.9 km/hRainLight Rain
3:30 PM24 °C23 °C94 %1008.5 hPa8 kmNE (40°)31.5 km/h42.6 km/hRainLight Rain
3:37 PM24 °C23 °C94 %1008.5 hPa16.1 kmNE (50°)31.5 km/h40.7 km/hOvercast
3:43 PM24 °C23 °C94 %1008.5 hPa11.3 kmNE (40°)31.5 km/h40.7 km/hOvercast
3:45 PM24 °C23 °C94 %1008.5 hPa11.3 kmNE (40°)25.9 km/hOvercast
3:46 PM24 °C23 °C94 %1008.5 hPa9.7 kmNE (40°)25.9 km/h40.7 km/hOvercast
3:50 PM24 °C24 °C100 %1008.5 hPa9.7 kmNE (40°)27.8 km/hOvercast
3:52 PM24 °C24 °C100 %1008.5 hPa11.3 kmNE (40°)25.9 km/hOvercast
3:55 PM24.7 °C24 °C96 %1008.5 hPa14.5 kmNE (40°)24.1 km/h0 mmMostly Cloudy
4:02 PM25 °C24 °C94 %1008.5 hPa16.1 kmNE (40°)22.2 km/hOvercast
4:05 PM25 °C24 °C94 %1008.5 hPa16.1 kmNE (40°)22.2 km/hOvercast
4:16 PM25 °C24 °C94 %1008.5 hPa16.1 kmNE (40°)31.5 km/hOvercast
4:19 PM25 °C23 °C89 %1008.5 hPa16.1 kmNNE (30°)27.8 km/hOvercast
4:22 PM25 °C23 °C89 %1008.5 hPa16.1 kmNE (40°)29.6 km/hOvercast
4:23 PM25 °C23 °C89 %1008.5 hPa16.1 kmNE (40°)29.6 km/hOvercast
4:29 PM25 °C23 °C89 %1008.5 hPa16.1 kmNE (40°)25.9 km/hOvercast
4:30 PM25 °C23 °C89 %1008.5 hPa16.1 kmNE (40°)25.9 km/hOvercast
4:33 PM25 °C23 °C89 %1008.5 hPa16.1 kmNNE (30°)27.8 km/hOvercast
4:42 PM25 °C23 °C89 %1008.8 hPa16.1 kmNNE (30°)24.1 km/hOvercast
4:45 PM25 °C23 °C89 %1008.8 hPa16.1 kmNNE (30°)27.8 km/hOvercast
4:47 PM25 °C23 °C89 %1008.8 hPa16.1 kmNE (40°)24.1 km/hOvercast
4:49 PM25 °C23 °C89 %1008.8 hPa16.1 kmNNE (30°)24.1 km/hOvercast
4:55 PM24.7 °C23.3 °C92 %1008.8 hPa16.1 kmNNE (30°)22.2 km/hOvercast
4:56 PM25 °C23 °C89 %1008.8 hPa16.1 kmNNE (30°)20.4 km/hOvercast
5:05 PM25 °C23 °C89 %1008.8 hPa16.1 kmNNE (30°)20.4 km/hOvercast
5:12 PM25 °C24 °C94 %1009.1 hPa8 kmNNE (30°)24.1 km/hRainLight Rain
5:15 PM25 °C24 °C94 %1009.1 hPa4 kmNE (40°)24.1 km/hRainHeavy Rain
5:16 PM25 °C24 °C94 %1008.8 hPa4 kmNE (40°)25.9 km/hRainHeavy Rain
5:18 PM24 °C24 °C100 %1009.1 hPa4 kmNE (40°)27.8 km/hRainHeavy Rain
5:21 PM24 °C24 °C100 %1009.1 hPa4.8 kmNE (40°)27.8 km/hRainLight Rain
5:24 PM24 °C24 °C100 %1009.1 hPa11.3 kmNE (40°)27.8 km/hOvercast
5:45 PM24 °C23 °C94 %1009.1 hPa16.1 kmNNE (30°)25.9 km/hOvercast
5:54 PM24 °C23 °C94 %1009.1 hPa16.1 kmNE (40°)25.9 km/hOvercast
5:55 PM24.2 °C23.1 °C94 %1009.1 hPa16.1 kmNE (40°)27.8 km/h0 mmOvercast
6:14 PM24 °C23 °C94 %1009.1 hPa16.1 kmNNE (30°)27.8 km/hOvercast
6:41 PM24 °C23 °C94 %1009.5 hPa16.1 kmNNE (30°)25.9 km/hOvercast
6:48 PM24 °C23 °C94 %1009.5 hPa16.1 kmNE (40°)24.1 km/hOvercast
6:51 PM24 °C23 °C94 %1009.5 hPa12.9 kmNE (40°)31.5 km/hRainLight Rain
6:55 PM24 °C23.2 °C95 %1009.5 hPa11.3 kmNE (40°)33.3 km/h0 mmRainLight Rain
6:59 PM24 °C23 °C94 %1009.5 hPa11.3 kmNE (40°)31.5 km/hRainLight Rain
7:11 PM23 °C23 °C100 %1009.8 hPa9.7 kmENE (60°)27.8 km/hRainLight Rain
7:20 PM24 °C23 °C94 %1009.8 hPa16.1 kmENE (70°)25.9 km/hOvercast
7:22 PM24 °C23 °C94 %1009.8 hPa12.9 kmENE (70°)25.9 km/hOvercast
7:24 PM24 °C23 °C94 %1009.8 hPa8 kmEast (80°)18.5 km/hRainLight Rain
7:30 PM23 °C23 °C100 %1009.8 hPa4 kmENE (70°)18.5 km/hRainRain
7:33 PM23 °C22 °C94 %1009.8 hPa4 kmENE (70°)16.7 km/hRainLight Rain
7:34 PM23 °C23 °C100 %1009.8 hPa4.8 kmEast (80°)14.8 km/hRainLight Rain
7:38 PM23 °C23 °C100 %1010.2 hPa6.4 kmNE (50°)18.5 km/hLight Drizzle
7:42 PM24 °C23 °C94 %1010.2 hPa11.3 kmNE (40°)22.2 km/h31.5 km/hLight Drizzle
7:54 PM24 °C23 °C94 %1010.2 hPa16.1 kmNE (40°)22.2 km/hOvercast
7:55 PM23.9 °C23.1 °C95 %1010.2 hPa16.1 kmNE (40°)24.1 km/h0 mmOvercast
8:02 PM24 °C23 °C94 %1010.2 hPa16.1 kmNE (40°)25.9 km/hRainLight Rain
8:09 PM24 °C23 °C94 %1010.2 hPa16.1 kmNE (40°)20.4 km/hRainLight Rain
8:13 PM24 °C23 °C94 %1010.2 hPa16.1 kmNE (40°)24.1 km/hRainLight Rain
8:22 PM24 °C23 °C94 %1010.5 hPa16.1 kmNE (40°)24.1 km/hOvercast
8:38 PM24 °C23 °C94 %1010.8 hPa16.1 kmNE (50°)20.4 km/hOvercast
8:44 PM24 °C23 °C94 %1010.8 hPa16.1 kmNE (40°)24.1 km/hOvercast
8:55 PM24 °C22.8 °C93 %1010.8 hPa16.1 kmNE (40°)25.9 km/h0 mmOvercast
9:00 PM24 °C23 °C94 %1010.8 hPa14.5 kmNE (50°)25.9 km/hOvercast
9:01 PM24 °C23 °C94 %1010.8 hPa11.3 kmNE (50°)29.6 km/hRainLight Rain
9:02 PM24 °C23 °C94 %1010.8 hPa9.7 kmENE (60°)29.6 km/hRainLight Rain
9:03 PM24 °C23 °C94 %1010.8 hPa6.4 kmENE (60°)31.5 km/hRainLight Rain
9:04 PM24 °C23 °C94 %1010.8 hPa6.4 kmENE (60°)31.5 km/hRainLight Rain
9:06 PM24 °C23 °C94 %1010.8 hPa4 kmENE (60°)29.6 km/hRainHeavy Rain
9:07 PM24 °C23 °C94 %1010.8 hPa3.2 kmENE (60°)33.3 km/hRainHeavy Rain
9:09 PM24 °C23 °C94 %1011.2 hPa2.9 kmNE (50°)35.2 km/hRainHeavy Rain
9:11 PM24 °C23 °C94 %1011.2 hPa2.9 kmNE (40°)33.3 km/h42.6 km/hRainHeavy Rain
9:13 PM23 °C23 °C100 %1011.2 hPa3.2 kmNE (40°)29.6 km/h42.6 km/hRainHeavy Rain
9:15 PM23 °C23 °C100 %1011.2 hPa4 kmNE (40°)29.6 km/h42.6 km/hRainHeavy Rain
9:17 PM23 °C23 °C100 %1011.2 hPa4.8 kmNNE (30°)29.6 km/h42.6 km/hRainRain
9:21 PM23 °C23 °C100 %1011.2 hPa8 kmNNE (30°)25.9 km/hRainLight Rain
9:22 PM23 °C23 °C100 %1011.2 hPa9.7 kmNNE (30°)27.8 km/hRainLight Rain
9:23 PM23 °C23 °C100 %1011.2 hPa11.3 kmNNE (30°)29.6 km/hRainLight Rain
9:27 PM23 °C23 °C100 %1011.2 hPa16.1 kmNE (40°)24.1 km/h38.9 km/hRainLight Rain
9:31 PM23 °C23 °C100 %1011.2 hPa8 kmNE (50°)31.5 km/h38.9 km/hRainLight Rain
9:33 PM23 °C22 °C94 %1011.2 hPa8 kmNE (50°)31.5 km/h38.9 km/hRainLight Rain
9:38 PM23 °C23 °C100 %1011.2 hPa8 kmNE (40°)27.8 km/hRainLight Rain
9:41 PM23 °C23 °C100 %1011.2 hPa12.9 kmNE (40°)27.8 km/hOvercast
9:52 PM24 °C23 °C94 %1011.2 hPa14.5 kmNE (40°)25.9 km/hOvercast
9:55 PM23.6 °C22.6 °C94 %1011.2 hPa16.1 kmNE (40°)24.1 km/h0 mmOvercast
10:15 PM24 °C23 °C94 %1011.5 hPa16.1 kmNE (50°)22.2 km/hOvercast
10:18 PM24 °C23 °C94 %1011.2 hPa16.1 kmNE (50°)22.2 km/hOvercast
10:19 PM24 °C23 °C94 %1011.2 hPa16.1 kmNE (50°)22.2 km/hOvercast
10:20 PM24 °C23 °C94 %1011.5 hPa12.9 kmNE (50°)24.1 km/hOvercast
10:21 PM24 °C23 °C94 %1011.5 hPa11.3 kmENE (60°)25.9 km/hRainLight Rain
10:22 PM24 °C23 °C94 %1011.5 hPa8 kmENE (60°)27.8 km/hRainRain
10:24 PM24 °C23 °C94 %1011.5 hPa6.4 kmENE (60°)31.5 km/h38.9 km/hRainRain
10:26 PM24 °C23 °C94 %1011.5 hPa4 kmENE (60°)29.6 km/h38.9 km/hRainRain
10:28 PM24 °C23 °C94 %1011.5 hPa3.2 kmENE (60°)33.3 km/h40.7 km/hRainLight Rain
10:34 PM23 °C23 °C100 %1011.5 hPa3.2 kmNE (50°)27.8 km/h40.7 km/hRainRain
10:36 PM23 °C23 °C100 %1011.5 hPa4 kmNE (50°)24.1 km/h40.7 km/hRainRain
10:37 PM23 °C23 °C100 %1011.5 hPa4 kmNE (50°)22.2 km/hRainRain
10:39 PM23 °C23 °C100 %1011.5 hPa4.8 kmENE (60°)22.2 km/hRainLight Rain
10:45 PM23 °C23 °C100 %1011.5 hPa4 kmENE (60°)33.3 km/hRainLight Rain
10:52 PM23 °C23 °C100 %1011.5 hPa4.8 kmENE (60°)31.5 km/hRainRain
10:55 PM23.2 °C22.7 °C97 %1011.5 hPa4.8 kmENE (60°)25.9 km/h38.9 km/h0 mmRainLight Rain
11:02 PM23 °C23 °C100 %1011.5 hPa4.8 kmENE (70°)27.8 km/hRainLight Rain
11:07 PM23 °C22 °C94 %1011.5 hPa4.8 kmENE (70°)20.4 km/hRainLight Rain
11:08 PM23 °C22 °C94 %1011.5 hPa4.8 kmENE (70°)18.5 km/hLight Drizzle
11:21 PM23 °C22 °C94 %1011.5 hPa11.3 kmENE (70°)14.8 km/hOvercast
11:44 PM23 °C23 °C100 %1011.5 hPa16.1 kmNE (50°)11.1 km/hOvercast
11:45 PM23 °C23 °C100 %1011.5 hPa16.1 kmNE (50°)11.1 km/hOvercast
11:55 PM23.3 °C22.6 °C96 %1011.2 hPa16.1 kmNE (50°)9.3 km/h0 mmOvercast
Hourly data recorded from PGUA, located 0 kilometers away from Achang Bay, Guam







STORIES FROM OUR PARTNERS